Date String (YYYY-MM-DD hh:mm:ss) UTC,Instrument flags,Ambient pressure (hPa),Sample flow (lpm),Bypass flow (lpm),Sample temperature (°C),Ambient temperature (°C),ASC tube jacket temperature (°C),LED temperature (°C),Box temperature (°C),Sample RH (%),Span deviation,Mass concentration (μg/m³),Mass concentration (μg/m³),Mass concentration (μg/m³)
DateTimeUTC,F1_M11,P_M11,Q1_M11,Q2_M11,T1_M11,T2_M11,T3_M11,T4_M11,T5_M11,U1_M11,ZSPAN_M11,X0_M11,X2_M11,X1_M11
2021-09-14 06:00:00,,0829.3,5.00,0.00,29.4,27.5,00.0,38.6,31.1,24.3,0000.0,0012.14,0004.53,0003.56
2021-09-14 06:01:00,,0829.3,4.99,0.00,29.5,27.8,00.0,38.6,31.2,24.3,0000.0,0011.65,0004.51,0003.53
2021-09-14 06:02:00,,0829.2,5.00,0.00,29.5,28.0,00.0,38.6,31.2,24.2,0000.0,0011.47,0004.49,0003.50
2021-09-14 06:03:00,,0829.2,5.01,0.00,29.5,28.2,00.0,38.6,31.3,24.1,0000.0,0011.15,0004.46,0003.48
2021-09-14 06:04:00,,0829.1,4.99,0.00,29.5,28.3,00.0,38.6,31.3,24.1,0000.0,0012.16,0004.47,0003.48
2021-09-14 06:05:00,,0829.1,5.00,0.00,29.6,28.5,00.0,38.6,31.4,24.1,0000.0,0012.28,0004.44,0003.47
2021-09-14 06:06:00,,0829.1,5.01,0.00,29.6,28.6,00.0,38.6,31.4,24.1,0000.0,0012.43,0004.42,0003.46
2021-09-14 06:07:00,,0829.2,5.00,0.00,29.6,28.6,00.0,38.6,31.4,24.1,0000.0,0012.58,0004.44,0003.46
2021-09-14 06:08:00,,0829.2,5.00,0.00,29.7,28.7,00.0,38.6,31.5,24.0,0000.0,0012.47,0004.50,0003.46
2021-09-14 06:09:00,,0829.2,5.01,0.00,29.7,28.8,00.0,38.7,31.5,24.0,0000.0,0012.66,0004.53,0003.47
2021-09-14 06:10:00,,0829.2,5.01,0.00,29.7,28.9,00.0,38.7,31.6,23.9,0000.0,0013.12,0004.56,0003.49
2021-09-14 06:11:00,,0829.2,5.00,0.00,29.8,28.9,00.0,38.7,31.6,23.9,0000.0,0013.25,0004.59,0003.50
2021-09-14 06:12:00,,0829.2,4.99,0.00,29.8,29.0,00.0,38.7,31.6,23.9,0000.0,0013.06,0004.61,0003.50
2021-09-14 06:13:00,,0829.3,5.01,0.00,29.8,28.9,00.0,38.7,31.6,23.8,0000.0,0012.73,0004.62,0003.50
2021-09-14 06:14:00,,0829.3,5.00,0.00,29.8,27.3,00.0,38.7,31.2,23.9,0000.0,0012.52,0004.63,0003.51
2021-09-14 06:15:00,,0829.3,5.00,0.00,29.6,26.2,00.0,38.7,31.0,24.1,0000.0,0011.62,0004.64,0003.51
2021-09-14 06:16:00,,0829.2,5.01,0.00,29.5,26.4,00.0,38.7,30.9,24.2,0000.0,0011.38,0004.67,0003.53
2021-09-14 06:17:00,,0829.3,4.99,0.00,29.4,26.8,00.0,38.7,31.0,24.4,0000.0,0011.28,0004.68,0003.53
2021-09-14 06:18:00,,0829.4,5.01,0.00,29.4,27.2,00.0,38.6,31.0,24.5,0000.0,0011.14,0004.66,0003.52
2021-09-14 06:19:00,,0829.4,5.00,0.00,29.4,27.5,00.0,38.6,31.1,24.5,0000.0,0011.21,0004.60,0003.51
2021-09-14 06:20:00,,0829.3,4.99,0.00,29.5,27.8,00.0,38.6,31.2,24.5,0000.0,0011.11,0004.54,0003.49
2021-09-14 06:21:00,,0829.3,5.01,0.00,29.5,28.0,00.0,38.6,31.2,24.5,0000.0,0010.65,0004.51,0003.46
2021-09-14 06:22:00,,0829.2,4.99,0.00,29.5,28.2,00.0,38.6,31.3,24.5,0000.0,0010.59,0004.45,0003.43
2021-09-14 06:23:00,,0829.2,4.99,0.00,29.5,28.3,00.0,38.6,31.3,24.4,0000.0,0011.32,0004.44,0003.43
2021-09-14 06:24:00,,0829.2,5.01,0.00,29.6,28.5,00.0,38.6,31.4,24.4,0000.0,0011.17,0004.39,0003.41
2021-09-14 06:25:00,,0829.2,5.00,0.00,29.6,28.6,00.0,38.6,31.4,24.3,0000.0,0010.89,0004.33,0003.40
2021-09-14 06:26:00,,0829.1,4.99,0.00,29.6,28.6,00.0,38.6,31.5,24.3,0000.0,0010.92,0004.32,0003.39
2021-09-14 06:27:00,,0829.1,5.01,0.00,29.7,28.7,00.0,38.7,31.5,24.2,0000.0,0011.49,0004.29,0003.36
2021-09-14 06:28:00,,0829.2,4.99,0.00,29.7,28.8,00.0,38.7,31.5,24.2,0000.0,0011.84,0004.30,0003.36
2021-09-14 06:29:00,,0829.3,5.02,0.00,29.7,28.9,00.0,38.7,31.6,24.2,0000.0,0011.75,0004.28,0003.37
2021-09-14 06:30:00,,0829.3,5.00,0.00,29.8,28.9,00.0,38.7,31.6,24.1,0000.0,0011.63,0004.31,0003.38
2021-09-14 06:31:00,,0829.3,4.99,0.00,29.8,29.0,00.0,38.7,31.6,24.3,0000.0,0011.20,0004.32,0003.39
2021-09-14 06:32:00,,0829.4,5.01,0.00,29.8,29.0,00.0,38.8,31.7,24.2,0000.0,0011.00,0004.30,0003.39
2021-09-14 06:33:00,,0829.4,5.00,0.00,29.9,29.0,00.0,38.8,31.8,24.2,0000.0,0011.01,0004.35,0003.40
2021-09-14 06:34:00,,0829.3,5.00,0.00,29.9,29.0,00.0,38.8,31.8,24.2,0000.0,0010.18,0004.34,0003.41
2021-09-14 06:35:00,,0829.3,4.99,0.00,29.9,29.1,00.0,38.8,31.7,24.2,0000.0,0010.64,0004.40,0003.41
2021-09-14 06:36:00,,0829.2,5.01,0.00,29.9,28.2,00.0,38.9,31.5,24.3,0000.0,0011.02,0004.43,0003.40
2021-09-14 06:37:00,,0829.2,5.00,0.00,29.8,26.5,00.0,38.8,31.0,24.4,0000.0,0011.07,0004.42,0003.39
2021-09-14 06:38:00,,0829.2,5.00,0.00,29.6,26.3,00.0,38.8,31.0,24.5,0000.0,0010.78,0004.47,0003.40
2021-09-14 06:39:00,,0829.2,5.00,0.00,29.6,26.7,00.0,38.8,31.0,24.5,0000.0,0011.08,0004.49,0003.40
2021-09-14 06:40:00,,0829.2,5.00,0.00,29.5,27.1,00.0,38.7,31.1,24.6,0000.0,0011.11,0004.52,0003.42
2021-09-14 06:41:00,,0829.3,5.00,0.00,29.5,27.4,00.0,38.7,31.1,24.7,0000.0,0011.09,0004.50,0003.42
2021-09-14 06:42:00,,0829.3,5.00,0.00,29.5,27.7,00.0,38.7,31.2,24.7,0000.0,0011.85,0004.51,0003.42
2021-09-14 06:43:00,,0829.2,4.99,0.00,29.5,28.0,00.0,38.7,31.3,24.7,0000.0,0011.84,0004.53,0003.44
2021-09-14 06:44:00,,0829.2,5.00,0.00,29.6,28.2,00.0,38.7,31.3,24.7,0000.0,0011.79,0004.53,0003.45
2021-09-14 06:45:00,,0829.3,5.00,0.00,29.6,28.3,00.0,38.7,31.4,24.7,0000.0,0012.63,0004.58,0003.45
2021-09-14 06:46:00,,0829.3,5.01,0.00,29.6,28.5,00.0,38.7,31.4,24.7,0000.0,0012.61,0004.62,0003.46
2021-09-14 06:47:00,,0829.3,5.00,0.00,29.7,28.6,00.0,38.7,31.4,24.6,0000.0,0013.13,0004.64,0003.46
2021-09-14 06:48:00,,0829.3,4.99,0.00,29.7,28.7,00.0,38.7,31.5,24.6,0000.0,0013.48,0004.69,0003.47
2021-09-14 06:49:00,,0829.3,5.01,0.00,29.7,28.7,00.0,38.7,31.5,24.5,0000.0,0013.46,0004.62,0003.47
2021-09-14 06:50:00,,0829.3,5.00,0.00,29.8,28.8,00.0,38.7,31.6,24.5,0000.0,0013.58,0004.61,0003.47
2021-09-14 06:51:00,,0829.2,5.00,0.00,29.8,28.8,00.0,38.8,31.6,24.5,0000.0,0014.30,0004.58,0003.46
2021-09-14 06:52:00,,0829.2,5.02,0.00,29.8,28.9,00.0,38.8,31.7,24.4,0000.0,0015.27,0004.61,0003.46
2021-09-14 06:53:00,,0829.3,5.00,0.00,29.8,28.9,00.0,38.8,31.7,24.4,0000.0,0014.68,0004.62,0003.47
2021-09-14 06:54:00,,0829.2,4.99,0.00,29.9,29.0,00.0,38.8,31.7,24.3,0000.0,0014.80,0004.64,0003.47
2021-09-14 06:55:00,,0829.2,5.01,0.00,29.9,29.0,00.0,38.8,31.8,24.2,0000.0,0015.17,0004.66,0003.47
2021-09-14 06:56:00,,0829.1,5.00,0.00,29.9,29.0,00.0,38.9,31.7,24.2,0000.0,0015.04,0004.65,0003.48
2021-09-14 06:57:00,,0829.1,5.01,0.00,29.9,28.7,00.0,38.9,31.7,24.2,0000.0,0014.79,0004.63,0003.48
2021-09-14 06:58:00,,0829.1,5.00,0.00,29.8,26.8,00.0,38.9,31.2,24.4,0000.0,0014.64,0004.63,0003.50
2021-09-14 06:59:00,,0829.0,5.00,0.00,29.7,26.2,00.0,38.9,31.0,24.6,0000.0,0014.48,0004.64,0003.52
